<?xml version="1.0" encoding="UTF-8" standalone="no" ?>
<gpx xmlns="http://www.topografix.com/GPX/1/1" xmlns:xsi="http://www.w3.org/2001/XMLSchema-instance" xsi:schemaLocation="http://www.topografix.com/GPX/1/1 http://www.topografix.com/GPX/1/1/gpx.xsd" version="1.1" creator="VisuGPX - https://www.visugpx.com">
  <metadata>
    <name>jour_1_5_40km_sans_fin_ni_milieu_ni_debut</name>
  </metadata>
  <trk>
    <name><![CDATA[jour_1_5_39km_sans_fin_ni_milieu_ni_debut_4_pays]]></name>
    <extensions>
      <line xmlns="http://www.topografix.com/GPX/gpx_style/0/2">
        <color>0000FF</color>
        <width>4</width>
      </line>
    </extensions>
    <trkseg>
      <trkpt lat="50.62459" lon="5.56676">
        <ele>69</ele>
        <time>2025-04-21T08:44:06Z</time>
      </trkpt>
      <trkpt lat="50.62478" lon="5.56758">
        <ele>65</ele>
        <time>2025-04-21T08:44:19Z</time>
      </trkpt>
      <trkpt lat="50.62439" lon="5.56826">
        <ele>67</ele>
        <time>2025-04-21T08:44:33Z</time>
      </trkpt>
      <trkpt lat="50.62514" lon="5.56895">
        <ele>67</ele>
        <time>2025-04-21T08:44:53Z</time>
      </trkpt>
      <trkpt lat="50.62536" lon="5.56923">
        <ele>67</ele>
        <time>2025-04-21T08:44:59Z</time>
      </trkpt>
      <trkpt lat="50.62626" lon="5.57087">
        <ele>66</ele>
        <time>2025-04-21T08:45:32Z</time>
      </trkpt>
      <trkpt lat="50.62753" lon="5.5727">
        <ele>70</ele>
        <time>2025-04-21T08:46:12Z</time>
      </trkpt>
      <trkpt lat="50.62768" lon="5.57303">
        <ele>67</ele>
        <time>2025-04-21T08:46:18Z</time>
      </trkpt>
      <trkpt lat="50.62761" lon="5.57312">
        <ele>67</ele>
        <time>2025-04-21T08:46:20Z</time>
      </trkpt>
      <trkpt lat="50.62781" lon="5.57369">
        <ele>61</ele>
        <time>2025-04-21T08:46:29Z</time>
      </trkpt>
      <trkpt lat="50.62865" lon="5.57542">
        <ele>65</ele>
        <time>2025-04-21T08:47:02Z</time>
      </trkpt>
      <trkpt lat="50.62848" lon="5.5756">
        <ele>66</ele>
        <time>2025-04-21T08:47:07Z</time>
      </trkpt>
      <trkpt lat="50.6279" lon="5.576">
        <ele>72</ele>
        <time>2025-04-21T08:47:21Z</time>
      </trkpt>
      <trkpt lat="50.62769" lon="5.57586">
        <ele>73</ele>
        <time>2025-04-21T08:47:27Z</time>
      </trkpt>
      <trkpt lat="50.62757" lon="5.57585">
        <ele>74</ele>
        <time>2025-04-21T08:47:29Z</time>
      </trkpt>
      <trkpt lat="50.62708" lon="5.57618">
        <ele>69</ele>
        <time>2025-04-21T08:47:42Z</time>
      </trkpt>
      <trkpt lat="50.62562" lon="5.57732">
        <ele>65</ele>
        <time>2025-04-21T08:48:20Z</time>
      </trkpt>
      <trkpt lat="50.62546" lon="5.57761">
        <ele>66</ele>
        <time>2025-04-21T08:48:26Z</time>
      </trkpt>
      <trkpt lat="50.62497" lon="5.57793">
        <ele>66</ele>
        <time>2025-04-21T08:48:38Z</time>
      </trkpt>
      <trkpt lat="50.62488" lon="5.57807">
        <ele>67</ele>
        <time>2025-04-21T08:48:41Z</time>
      </trkpt>
      <trkpt lat="50.62484" lon="5.57832">
        <ele>67</ele>
        <time>2025-04-21T08:48:45Z</time>
      </trkpt>
      <trkpt lat="50.625" lon="5.57977">
        <ele>66</ele>
        <time>2025-04-21T08:49:07Z</time>
      </trkpt>
      <trkpt lat="50.62425" lon="5.57984">
        <ele>63</ele>
        <time>2025-04-21T08:49:24Z</time>
      </trkpt>
      <trkpt lat="50.62398" lon="5.57993">
        <ele>62</ele>
        <time>2025-04-21T08:49:31Z</time>
      </trkpt>
      <trkpt lat="50.62364" lon="5.58012">
        <ele>61</ele>
        <time>2025-04-21T08:49:39Z</time>
      </trkpt>
      <trkpt lat="50.62331" lon="5.58038">
        <ele>61</ele>
        <time>2025-04-21T08:49:48Z</time>
      </trkpt>
      <trkpt lat="50.62281" lon="5.58093">
        <ele>62</ele>
        <time>2025-04-21T08:50:02Z</time>
      </trkpt>
      <trkpt lat="50.6228" lon="5.58103">
        <ele>63</ele>
        <time>2025-04-21T08:50:03Z</time>
      </trkpt>
      <trkpt lat="50.62223" lon="5.58216">
        <ele>66</ele>
        <time>2025-04-21T08:50:25Z</time>
      </trkpt>
      <trkpt lat="50.62212" lon="5.58221">
        <ele>65</ele>
        <time>2025-04-21T08:50:27Z</time>
      </trkpt>
      <trkpt lat="50.62206" lon="5.58229">
        <ele>65</ele>
        <time>2025-04-21T08:50:29Z</time>
      </trkpt>
      <trkpt lat="50.62197" lon="5.58249">
        <ele>66</ele>
        <time>2025-04-21T08:50:33Z</time>
      </trkpt>
      <trkpt lat="50.62162" lon="5.58342">
        <ele>69</ele>
        <time>2025-04-21T08:50:49Z</time>
      </trkpt>
      <trkpt lat="50.6216" lon="5.5836">
        <ele>69</ele>
        <time>2025-04-21T08:50:52Z</time>
      </trkpt>
      <trkpt lat="50.62042" lon="5.58702">
        <ele>65</ele>
        <time>2025-04-21T08:51:49Z</time>
      </trkpt>
      <trkpt lat="50.62011" lon="5.58803">
        <ele>66</ele>
        <time>2025-04-21T08:52:06Z</time>
      </trkpt>
      <trkpt lat="50.61961" lon="5.58935">
        <ele>69</ele>
        <time>2025-04-21T08:52:29Z</time>
      </trkpt>
      <trkpt lat="50.6192" lon="5.59032">
        <ele>70</ele>
        <time>2025-04-21T08:52:46Z</time>
      </trkpt>
      <trkpt lat="50.61833" lon="5.59211">
        <ele>64</ele>
        <time>2025-04-21T08:53:19Z</time>
      </trkpt>
      <trkpt lat="50.61821" lon="5.59222">
        <ele>64</ele>
        <time>2025-04-21T08:53:23Z</time>
      </trkpt>
      <trkpt lat="50.61762" lon="5.59153">
        <ele>65</ele>
        <time>2025-04-21T08:53:40Z</time>
      </trkpt>
      <trkpt lat="50.61703" lon="5.59281">
        <ele>70</ele>
        <time>2025-04-21T08:54:03Z</time>
      </trkpt>
      <trkpt lat="50.61628" lon="5.59468">
        <ele>72</ele>
        <time>2025-04-21T08:54:36Z</time>
      </trkpt>
      <trkpt lat="50.61571" lon="5.59655">
        <ele>67</ele>
        <time>2025-04-21T08:55:07Z</time>
      </trkpt>
      <trkpt lat="50.61505" lon="5.59902">
        <ele>64</ele>
        <time>2025-04-21T08:55:46Z</time>
      </trkpt>
      <trkpt lat="50.61487" lon="5.59983">
        <ele>64</ele>
        <time>2025-04-21T08:55:59Z</time>
      </trkpt>
      <trkpt lat="50.61482" lon="5.6004">
        <ele>64</ele>
        <time>2025-04-21T08:56:08Z</time>
      </trkpt>
      <trkpt lat="50.61473" lon="5.60093">
        <ele>65</ele>
        <time>2025-04-21T08:56:16Z</time>
      </trkpt>
      <trkpt lat="50.61455" lon="5.60131">
        <ele>65</ele>
        <time>2025-04-21T08:56:23Z</time>
      </trkpt>
      <trkpt lat="50.61448" lon="5.60184">
        <ele>66</ele>
        <time>2025-04-21T08:56:31Z</time>
      </trkpt>
      <trkpt lat="50.61428" lon="5.60195">
        <ele>67</ele>
        <time>2025-04-21T08:56:36Z</time>
      </trkpt>
      <trkpt lat="50.6141" lon="5.60246">
        <ele>68</ele>
        <time>2025-04-21T08:56:44Z</time>
      </trkpt>
      <trkpt lat="50.61152" lon="5.61203">
        <ele>65</ele>
        <time>2025-04-21T08:59:19Z</time>
      </trkpt>
      <trkpt lat="50.61127" lon="5.6119">
        <ele>64</ele>
        <time>2025-04-21T08:59:25Z</time>
      </trkpt>
      <trkpt lat="50.61118" lon="5.61224">
        <ele>65</ele>
        <time>2025-04-21T08:59:30Z</time>
      </trkpt>
      <trkpt lat="50.61108" lon="5.61238">
        <ele>65</ele>
        <time>2025-04-21T08:59:33Z</time>
      </trkpt>
      <trkpt lat="50.61093" lon="5.61248">
        <ele>64</ele>
        <time>2025-04-21T08:59:37Z</time>
      </trkpt>
      <trkpt lat="50.61074" lon="5.61252">
        <ele>64</ele>
        <time>2025-04-21T08:59:42Z</time>
      </trkpt>
      <trkpt lat="50.61052" lon="5.6125">
        <ele>65</ele>
        <time>2025-04-21T08:59:47Z</time>
      </trkpt>
      <trkpt lat="50.60952" lon="5.61221">
        <ele>67</ele>
        <time>2025-04-21T09:00:10Z</time>
      </trkpt>
      <trkpt lat="50.60892" lon="5.61197">
        <ele>68</ele>
        <time>2025-04-21T09:00:25Z</time>
      </trkpt>
      <trkpt lat="50.60926" lon="5.6122">
        <ele>67</ele>
        <time>2025-04-21T09:00:34Z</time>
      </trkpt>
      <trkpt lat="50.60854" lon="5.61471">
        <ele>67</ele>
        <time>2025-04-21T09:01:14Z</time>
      </trkpt>
      <trkpt lat="50.6084" lon="5.61557">
        <ele>69</ele>
        <time>2025-04-21T09:01:28Z</time>
      </trkpt>
      <trkpt lat="50.60851" lon="5.61565">
        <ele>69</ele>
        <time>2025-04-21T09:01:30Z</time>
      </trkpt>
      <trkpt lat="50.60849" lon="5.61612">
        <ele>69</ele>
        <time>2025-04-21T09:01:37Z</time>
      </trkpt>
      <trkpt lat="50.60814" lon="5.61728">
        <ele>70</ele>
        <time>2025-04-21T09:01:56Z</time>
      </trkpt>
      <trkpt lat="50.60815" lon="5.61745">
        <ele>70</ele>
        <time>2025-04-21T09:01:59Z</time>
      </trkpt>
      <trkpt lat="50.60802" lon="5.61794">
        <ele>70</ele>
        <time>2025-04-21T09:02:07Z</time>
      </trkpt>
      <trkpt lat="50.60744" lon="5.61975">
        <ele>71</ele>
        <time>2025-04-21T09:02:37Z</time>
      </trkpt>
      <trkpt lat="50.60686" lon="5.62091">
        <ele>71</ele>
        <time>2025-04-21T09:02:59Z</time>
      </trkpt>
      <trkpt lat="50.60663" lon="5.6215">
        <ele>72</ele>
        <time>2025-04-21T09:03:09Z</time>
      </trkpt>
      <trkpt lat="50.60504" lon="5.62638">
        <ele>70</ele>
        <time>2025-04-21T09:04:30Z</time>
      </trkpt>
      <trkpt lat="50.60464" lon="5.62767">
        <ele>70</ele>
        <time>2025-04-21T09:04:52Z</time>
      </trkpt>
      <trkpt lat="50.60446" lon="5.62758">
        <ele>70</ele>
        <time>2025-04-21T09:04:56Z</time>
      </trkpt>
      <trkpt lat="50.60441" lon="5.62762">
        <ele>70</ele>
        <time>2025-04-21T09:04:57Z</time>
      </trkpt>
      <trkpt lat="50.60425" lon="5.62801">
        <ele>70</ele>
        <time>2025-04-21T09:05:04Z</time>
      </trkpt>
      <trkpt lat="50.60396" lon="5.62964">
        <ele>70</ele>
        <time>2025-04-21T09:05:29Z</time>
      </trkpt>
      <trkpt lat="50.6035" lon="5.63151">
        <ele>71</ele>
        <time>2025-04-21T09:05:59Z</time>
      </trkpt>
      <trkpt lat="50.60335" lon="5.6325">
        <ele>70</ele>
        <time>2025-04-21T09:06:14Z</time>
      </trkpt>
      <trkpt lat="50.60322" lon="5.63363">
        <ele>72</ele>
        <time>2025-04-21T09:06:31Z</time>
      </trkpt>
      <trkpt lat="50.60317" lon="5.63439">
        <ele>73</ele>
        <time>2025-04-21T09:06:42Z</time>
      </trkpt>
      <trkpt lat="50.60318" lon="5.63457">
        <ele>73</ele>
        <time>2025-04-21T09:06:45Z</time>
      </trkpt>
      <trkpt lat="50.60331" lon="5.63503">
        <ele>74</ele>
        <time>2025-04-21T09:06:53Z</time>
      </trkpt>
      <trkpt lat="50.60346" lon="5.63505">
        <ele>75</ele>
        <time>2025-04-21T09:06:56Z</time>
      </trkpt>
      <trkpt lat="50.60355" lon="5.63523">
        <ele>76</ele>
        <time>2025-04-21T09:06:59Z</time>
      </trkpt>
      <trkpt lat="50.60354" lon="5.6355">
        <ele>77</ele>
        <time>2025-04-21T09:07:03Z</time>
      </trkpt>
      <trkpt lat="50.60348" lon="5.63563">
        <ele>78</ele>
        <time>2025-04-21T09:07:06Z</time>
      </trkpt>
      <trkpt lat="50.60351" lon="5.63584">
        <ele>79</ele>
        <time>2025-04-21T09:07:09Z</time>
      </trkpt>
      <trkpt lat="50.60373" lon="5.63602">
        <ele>81</ele>
        <time>2025-04-21T09:07:15Z</time>
      </trkpt>
      <trkpt lat="50.60402" lon="5.63632">
        <ele>83</ele>
        <time>2025-04-21T09:07:23Z</time>
      </trkpt>
      <trkpt lat="50.60448" lon="5.63619">
        <ele>84</ele>
        <time>2025-04-21T09:07:34Z</time>
      </trkpt>
      <trkpt lat="50.60486" lon="5.63582">
        <ele>83</ele>
        <time>2025-04-21T09:07:44Z</time>
      </trkpt>
      <trkpt lat="50.60536" lon="5.63634">
        <ele>87</ele>
        <time>2025-04-21T09:07:58Z</time>
      </trkpt>
      <trkpt lat="50.60618" lon="5.63705">
        <ele>93</ele>
        <time>2025-04-21T09:08:20Z</time>
      </trkpt>
      <trkpt lat="50.60628" lon="5.63689">
        <ele>93</ele>
        <time>2025-04-21T09:08:23Z</time>
      </trkpt>
      <trkpt lat="50.60642" lon="5.63685">
        <ele>93</ele>
        <time>2025-04-21T09:08:27Z</time>
      </trkpt>
      <trkpt lat="50.60694" lon="5.6368">
        <ele>95</ele>
        <time>2025-04-21T09:08:39Z</time>
      </trkpt>
      <trkpt lat="50.60772" lon="5.63648">
        <ele>96</ele>
        <time>2025-04-21T09:08:58Z</time>
      </trkpt>
      <trkpt lat="50.60823" lon="5.6362">
        <ele>96</ele>
        <time>2025-04-21T09:09:10Z</time>
      </trkpt>
      <trkpt lat="50.6085" lon="5.63595">
        <ele>95</ele>
        <time>2025-04-21T09:09:18Z</time>
      </trkpt>
      <trkpt lat="50.60889" lon="5.63548">
        <ele>94</ele>
        <time>2025-04-21T09:09:29Z</time>
      </trkpt>
      <trkpt lat="50.60904" lon="5.63528">
        <ele>93</ele>
        <time>2025-04-21T09:09:34Z</time>
      </trkpt>
      <trkpt lat="50.60913" lon="5.63538">
        <ele>94</ele>
        <time>2025-04-21T09:09:36Z</time>
      </trkpt>
      <trkpt lat="50.60937" lon="5.63498">
        <ele>92</ele>
        <time>2025-04-21T09:09:44Z</time>
      </trkpt>
      <trkpt lat="50.60972" lon="5.63538">
        <ele>94</ele>
        <time>2025-04-21T09:09:55Z</time>
      </trkpt>
      <trkpt lat="50.6105" lon="5.63677">
        <ele>96</ele>
        <time>2025-04-21T09:10:22Z</time>
      </trkpt>
      <trkpt lat="50.61087" lon="5.637">
        <ele>95</ele>
        <time>2025-04-21T09:10:31Z</time>
      </trkpt>
      <trkpt lat="50.61114" lon="5.63737">
        <ele>99</ele>
        <time>2025-04-21T09:10:40Z</time>
      </trkpt>
      <trkpt lat="50.61133" lon="5.63785">
        <ele>101</ele>
        <time>2025-04-21T09:10:48Z</time>
      </trkpt>
      <trkpt lat="50.61144" lon="5.63823">
        <ele>102</ele>
        <time>2025-04-21T09:10:54Z</time>
      </trkpt>
      <trkpt lat="50.6115" lon="5.63879">
        <ele>103</ele>
        <time>2025-04-21T09:11:03Z</time>
      </trkpt>
      <trkpt lat="50.61168" lon="5.63929">
        <ele>104</ele>
        <time>2025-04-21T09:11:11Z</time>
      </trkpt>
      <trkpt lat="50.61198" lon="5.63945">
        <ele>109</ele>
        <time>2025-04-21T09:11:19Z</time>
      </trkpt>
      <trkpt lat="50.61207" lon="5.63959">
        <ele>111</ele>
        <time>2025-04-21T09:11:22Z</time>
      </trkpt>
      <trkpt lat="50.61212" lon="5.63986">
        <ele>112</ele>
        <time>2025-04-21T09:11:26Z</time>
      </trkpt>
      <trkpt lat="50.6121" lon="5.64011">
        <ele>113</ele>
        <time>2025-04-21T09:11:29Z</time>
      </trkpt>
      <trkpt lat="50.612" lon="5.64069">
        <ele>115</ele>
        <time>2025-04-21T09:11:38Z</time>
      </trkpt>
      <trkpt lat="50.61197" lon="5.64117">
        <ele>118</ele>
        <time>2025-04-21T09:11:46Z</time>
      </trkpt>
      <trkpt lat="50.61188" lon="5.64156">
        <ele>119</ele>
        <time>2025-04-21T09:11:52Z</time>
      </trkpt>
      <trkpt lat="50.61174" lon="5.64201">
        <ele>120</ele>
        <time>2025-04-21T09:11:59Z</time>
      </trkpt>
      <trkpt lat="50.61161" lon="5.64222">
        <ele>120</ele>
        <time>2025-04-21T09:12:03Z</time>
      </trkpt>
      <trkpt lat="50.61165" lon="5.64238">
        <ele>122</ele>
        <time>2025-04-21T09:12:06Z</time>
      </trkpt>
      <trkpt lat="50.61169" lon="5.64271">
        <ele>126</ele>
        <time>2025-04-21T09:12:11Z</time>
      </trkpt>
      <trkpt lat="50.61174" lon="5.64283">
        <ele>128</ele>
        <time>2025-04-21T09:12:13Z</time>
      </trkpt>
      <trkpt lat="50.61188" lon="5.64296">
        <ele>132</ele>
        <time>2025-04-21T09:12:17Z</time>
      </trkpt>
      <trkpt lat="50.61197" lon="5.64318">
        <ele>135</ele>
        <time>2025-04-21T09:12:21Z</time>
      </trkpt>
      <trkpt lat="50.61225" lon="5.64347">
        <ele>142</ele>
        <time>2025-04-21T09:12:29Z</time>
      </trkpt>
      <trkpt lat="50.61261" lon="5.64372">
        <ele>150</ele>
        <time>2025-04-21T09:12:38Z</time>
      </trkpt>
      <trkpt lat="50.61312" lon="5.64423">
        <ele>165</ele>
        <time>2025-04-21T09:12:52Z</time>
      </trkpt>
      <trkpt lat="50.61341" lon="5.64448">
        <ele>173</ele>
        <time>2025-04-21T09:13:00Z</time>
      </trkpt>
      <trkpt lat="50.61354" lon="5.64479">
        <ele>177</ele>
        <time>2025-04-21T09:13:05Z</time>
      </trkpt>
      <trkpt lat="50.61364" lon="5.64586">
        <ele>187</ele>
        <time>2025-04-21T09:13:21Z</time>
      </trkpt>
      <trkpt lat="50.61371" lon="5.64612">
        <ele>189</ele>
        <time>2025-04-21T09:13:25Z</time>
      </trkpt>
      <trkpt lat="50.61395" lon="5.64643">
        <ele>196</ele>
        <time>2025-04-21T09:13:33Z</time>
      </trkpt>
      <trkpt lat="50.61422" lon="5.64665">
        <ele>204</ele>
        <time>2025-04-21T09:13:40Z</time>
      </trkpt>
      <trkpt lat="50.6145" lon="5.64717">
        <ele>211</ele>
        <time>2025-04-21T09:13:50Z</time>
      </trkpt>
      <trkpt lat="50.6146" lon="5.6472">
        <ele>213</ele>
        <time>2025-04-21T09:13:52Z</time>
      </trkpt>
      <trkpt lat="50.61478" lon="5.64701">
        <ele>215</ele>
        <time>2025-04-21T09:13:57Z</time>
      </trkpt>
      <trkpt lat="50.61604" lon="5.6466">
        <ele>225</ele>
        <time>2025-04-21T09:14:27Z</time>
      </trkpt>
      <trkpt lat="50.616" lon="5.64716">
        <ele>226</ele>
        <time>2025-04-21T09:14:36Z</time>
      </trkpt>
      <trkpt lat="50.61604" lon="5.64781">
        <ele>228</ele>
        <time>2025-04-21T09:14:45Z</time>
      </trkpt>
      <trkpt lat="50.61595" lon="5.64864">
        <ele>230</ele>
        <time>2025-04-21T09:14:58Z</time>
      </trkpt>
      <trkpt lat="50.6161" lon="5.64969">
        <ele>232</ele>
        <time>2025-04-21T09:15:14Z</time>
      </trkpt>
      <trkpt lat="50.6163" lon="5.65106">
        <ele>232</ele>
        <time>2025-04-21T09:15:35Z</time>
      </trkpt>
      <trkpt lat="50.61642" lon="5.65163">
        <ele>232</ele>
        <time>2025-04-21T09:15:43Z</time>
      </trkpt>
      <trkpt lat="50.61689" lon="5.65331">
        <ele>233</ele>
        <time>2025-04-21T09:16:11Z</time>
      </trkpt>
      <trkpt lat="50.61794" lon="5.65577">
        <ele>233</ele>
        <time>2025-04-21T09:16:55Z</time>
      </trkpt>
      <trkpt lat="50.61835" lon="5.65611">
        <ele>235</ele>
        <time>2025-04-21T09:17:05Z</time>
      </trkpt>
      <trkpt lat="50.61816" lon="5.65665">
        <ele>234</ele>
        <time>2025-04-21T09:17:15Z</time>
      </trkpt>
      <trkpt lat="50.61803" lon="5.65681">
        <ele>233</ele>
        <time>2025-04-21T09:17:18Z</time>
      </trkpt>
      <trkpt lat="50.61756" lon="5.65818">
        <ele>233</ele>
        <time>2025-04-21T09:17:42Z</time>
      </trkpt>
      <trkpt lat="50.61716" lon="5.65929">
        <ele>234</ele>
        <time>2025-04-21T09:18:00Z</time>
      </trkpt>
      <trkpt lat="50.61686" lon="5.66018">
        <ele>235</ele>
        <time>2025-04-21T09:18:15Z</time>
      </trkpt>
      <trkpt lat="50.61644" lon="5.66126">
        <ele>240</ele>
        <time>2025-04-21T09:18:34Z</time>
      </trkpt>
      <trkpt lat="50.61644" lon="5.66149">
        <ele>240</ele>
        <time>2025-04-21T09:18:38Z</time>
      </trkpt>
      <trkpt lat="50.61636" lon="5.6616">
        <ele>240</ele>
        <time>2025-04-21T09:18:40Z</time>
      </trkpt>
      <trkpt lat="50.61598" lon="5.66265">
        <ele>242</ele>
        <time>2025-04-21T09:18:58Z</time>
      </trkpt>
      <trkpt lat="50.61566" lon="5.66345">
        <ele>246</ele>
        <time>2025-04-21T09:19:12Z</time>
      </trkpt>
      <trkpt lat="50.61524" lon="5.66439">
        <ele>247</ele>
        <time>2025-04-21T09:19:29Z</time>
      </trkpt>
      <trkpt lat="50.61189" lon="5.67044">
        <ele>256</ele>
        <time>2025-04-21T09:21:28Z</time>
      </trkpt>
      <trkpt lat="50.61156" lon="5.67102">
        <ele>256</ele>
        <time>2025-04-21T09:21:40Z</time>
      </trkpt>
      <trkpt lat="50.61133" lon="5.67161">
        <ele>257</ele>
        <time>2025-04-21T09:21:50Z</time>
      </trkpt>
      <trkpt lat="50.61115" lon="5.67216">
        <ele>256</ele>
        <time>2025-04-21T09:21:59Z</time>
      </trkpt>
      <trkpt lat="50.61097" lon="5.67308">
        <ele>257</ele>
        <time>2025-04-21T09:22:13Z</time>
      </trkpt>
      <trkpt lat="50.61088" lon="5.67404">
        <ele>258</ele>
        <time>2025-04-21T09:22:28Z</time>
      </trkpt>
      <trkpt lat="50.61088" lon="5.67469">
        <ele>259</ele>
        <time>2025-04-21T09:22:37Z</time>
      </trkpt>
      <trkpt lat="50.61094" lon="5.67549">
        <ele>260</ele>
        <time>2025-04-21T09:22:49Z</time>
      </trkpt>
      <trkpt lat="50.61107" lon="5.67621">
        <ele>260</ele>
        <time>2025-04-21T09:23:00Z</time>
      </trkpt>
      <trkpt lat="50.61127" lon="5.67692">
        <ele>261</ele>
        <time>2025-04-21T09:23:12Z</time>
      </trkpt>
      <trkpt lat="50.61162" lon="5.67779">
        <ele>263</ele>
        <time>2025-04-21T09:23:27Z</time>
      </trkpt>
      <trkpt lat="50.61218" lon="5.67879">
        <ele>263</ele>
        <time>2025-04-21T09:23:47Z</time>
      </trkpt>
      <trkpt lat="50.61428" lon="5.68211">
        <ele>261</ele>
        <time>2025-04-21T09:24:56Z</time>
      </trkpt>
      <trkpt lat="50.61452" lon="5.68236">
        <ele>261</ele>
        <time>2025-04-21T09:25:03Z</time>
      </trkpt>
      <trkpt lat="50.61468" lon="5.68236">
        <ele>261</ele>
        <time>2025-04-21T09:25:07Z</time>
      </trkpt>
      <trkpt lat="50.61469" lon="5.68244">
        <ele>261</ele>
        <time>2025-04-21T09:25:08Z</time>
      </trkpt>
      <trkpt lat="50.61485" lon="5.68269">
        <ele>261</ele>
        <time>2025-04-21T09:25:13Z</time>
      </trkpt>
      <trkpt lat="50.61481" lon="5.68286">
        <ele>261</ele>
        <time>2025-04-21T09:25:16Z</time>
      </trkpt>
      <trkpt lat="50.61512" lon="5.68332">
        <ele>261</ele>
        <time>2025-04-21T09:25:26Z</time>
      </trkpt>
      <trkpt lat="50.61515" lon="5.68348">
        <ele>261</ele>
        <time>2025-04-21T09:25:28Z</time>
      </trkpt>
      <trkpt lat="50.61662" lon="5.68581">
        <ele>261</ele>
        <time>2025-04-21T09:26:17Z</time>
      </trkpt>
      <trkpt lat="50.61672" lon="5.68589">
        <ele>261</ele>
        <time>2025-04-21T09:26:20Z</time>
      </trkpt>
      <trkpt lat="50.61675" lon="5.68605">
        <ele>261</ele>
        <time>2025-04-21T09:26:22Z</time>
      </trkpt>
      <trkpt lat="50.61689" lon="5.68618">
        <ele>261</ele>
        <time>2025-04-21T09:26:26Z</time>
      </trkpt>
      <trkpt lat="50.61757" lon="5.68735">
        <ele>262</ele>
        <time>2025-04-21T09:26:49Z</time>
      </trkpt>
      <trkpt lat="50.61818" lon="5.68853">
        <ele>262</ele>
        <time>2025-04-21T09:27:12Z</time>
      </trkpt>
      <trkpt lat="50.62058" lon="5.69424">
        <ele>260</ele>
        <time>2025-04-21T09:28:53Z</time>
      </trkpt>
      <trkpt lat="50.62058" lon="5.69434">
        <ele>260</ele>
        <time>2025-04-21T09:28:55Z</time>
      </trkpt>
      <trkpt lat="50.62068" lon="5.69447">
        <ele>260</ele>
        <time>2025-04-21T09:28:58Z</time>
      </trkpt>
      <trkpt lat="50.6227" lon="5.69925">
        <ele>263</ele>
        <time>2025-04-21T09:30:23Z</time>
      </trkpt>
      <trkpt lat="50.6229" lon="5.69985">
        <ele>262</ele>
        <time>2025-04-21T09:30:33Z</time>
      </trkpt>
      <trkpt lat="50.62301" lon="5.69994">
        <ele>262</ele>
        <time>2025-04-21T09:30:36Z</time>
      </trkpt>
      <trkpt lat="50.62359" lon="5.70155">
        <ele>263</ele>
        <time>2025-04-21T09:31:03Z</time>
      </trkpt>
      <trkpt lat="50.627" lon="5.7127">
        <ele>272</ele>
        <time>2025-04-21T09:34:07Z</time>
      </trkpt>
      <trkpt lat="50.62904" lon="5.71922">
        <ele>266</ele>
        <time>2025-04-21T09:35:54Z</time>
      </trkpt>
      <trkpt lat="50.63133" lon="5.72911">
        <ele>274</ele>
        <time>2025-04-21T09:38:30Z</time>
      </trkpt>
      <trkpt lat="50.63145" lon="5.72956">
        <ele>274</ele>
        <time>2025-04-21T09:38:38Z</time>
      </trkpt>
      <trkpt lat="50.63166" lon="5.73005">
        <ele>273</ele>
        <time>2025-04-21T09:38:46Z</time>
      </trkpt>
      <trkpt lat="50.63195" lon="5.73122">
        <ele>274</ele>
        <time>2025-04-21T09:39:05Z</time>
      </trkpt>
      <trkpt lat="50.63195" lon="5.73196">
        <ele>275</ele>
        <time>2025-04-21T09:39:16Z</time>
      </trkpt>
      <trkpt lat="50.63205" lon="5.7325">
        <ele>275</ele>
        <time>2025-04-21T09:39:24Z</time>
      </trkpt>
      <trkpt lat="50.6326" lon="5.73484">
        <ele>276</ele>
        <time>2025-04-21T09:40:01Z</time>
      </trkpt>
      <trkpt lat="50.63277" lon="5.73541">
        <ele>277</ele>
        <time>2025-04-21T09:40:11Z</time>
      </trkpt>
      <trkpt lat="50.63333" lon="5.73783">
        <ele>278</ele>
        <time>2025-04-21T09:40:49Z</time>
      </trkpt>
      <trkpt lat="50.63499" lon="5.74532">
        <ele>278</ele>
        <time>2025-04-21T09:42:46Z</time>
      </trkpt>
      <trkpt lat="50.63509" lon="5.74543">
        <ele>278</ele>
        <time>2025-04-21T09:42:49Z</time>
      </trkpt>
      <trkpt lat="50.63513" lon="5.74558">
        <ele>278</ele>
        <time>2025-04-21T09:42:52Z</time>
      </trkpt>
      <trkpt lat="50.63511" lon="5.74575">
        <ele>278</ele>
        <time>2025-04-21T09:42:54Z</time>
      </trkpt>
      <trkpt lat="50.63516" lon="5.74605">
        <ele>278</ele>
        <time>2025-04-21T09:42:59Z</time>
      </trkpt>
      <trkpt lat="50.63636" lon="5.75131">
        <ele>277</ele>
        <time>2025-04-21T09:44:21Z</time>
      </trkpt>
      <trkpt lat="50.63665" lon="5.75272">
        <ele>278</ele>
        <time>2025-04-21T09:44:43Z</time>
      </trkpt>
      <trkpt lat="50.63681" lon="5.75365">
        <ele>278</ele>
        <time>2025-04-21T09:44:58Z</time>
      </trkpt>
      <trkpt lat="50.63705" lon="5.75545">
        <ele>279</ele>
        <time>2025-04-21T09:45:25Z</time>
      </trkpt>
      <trkpt lat="50.64009" lon="5.78272">
        <ele>299</ele>
        <time>2025-04-21T09:52:15Z</time>
      </trkpt>
      <trkpt lat="50.64041" lon="5.78413">
        <ele>299</ele>
        <time>2025-04-21T09:52:37Z</time>
      </trkpt>
      <trkpt lat="50.64231" lon="5.79058">
        <ele>305</ele>
        <time>2025-04-21T09:54:23Z</time>
      </trkpt>
      <trkpt lat="50.64239" lon="5.79077">
        <ele>305</ele>
        <time>2025-04-21T09:54:26Z</time>
      </trkpt>
      <trkpt lat="50.64247" lon="5.79114">
        <ele>305</ele>
        <time>2025-04-21T09:54:32Z</time>
      </trkpt>
      <trkpt lat="50.64287" lon="5.7922">
        <ele>307</ele>
        <time>2025-04-21T09:54:50Z</time>
      </trkpt>
      <trkpt lat="50.64305" lon="5.79252">
        <ele>308</ele>
        <time>2025-04-21T09:54:56Z</time>
      </trkpt>
      <trkpt lat="50.64335" lon="5.79294">
        <ele>309</ele>
        <time>2025-04-21T09:55:06Z</time>
      </trkpt>
      <trkpt lat="50.64384" lon="5.79338">
        <ele>310</ele>
        <time>2025-04-21T09:55:19Z</time>
      </trkpt>
      <trkpt lat="50.64496" lon="5.79422">
        <ele>309</ele>
        <time>2025-04-21T09:55:48Z</time>
      </trkpt>
      <trkpt lat="50.64567" lon="5.79484">
        <ele>309</ele>
        <time>2025-04-21T09:56:07Z</time>
      </trkpt>
      <trkpt lat="50.64585" lon="5.79504">
        <ele>310</ele>
        <time>2025-04-21T09:56:12Z</time>
      </trkpt>
      <trkpt lat="50.64645" lon="5.79592">
        <ele>309</ele>
        <time>2025-04-21T09:56:31Z</time>
      </trkpt>
      <trkpt lat="50.64668" lon="5.79632">
        <ele>309</ele>
        <time>2025-04-21T09:56:39Z</time>
      </trkpt>
      <trkpt lat="50.64699" lon="5.79706">
        <ele>309</ele>
        <time>2025-04-21T09:56:52Z</time>
      </trkpt>
      <trkpt lat="50.64708" lon="5.79714">
        <ele>308</ele>
        <time>2025-04-21T09:56:55Z</time>
      </trkpt>
      <trkpt lat="50.64707" lon="5.79728">
        <ele>309</ele>
        <time>2025-04-21T09:56:57Z</time>
      </trkpt>
      <trkpt lat="50.64761" lon="5.79909">
        <ele>311</ele>
        <time>2025-04-21T09:57:26Z</time>
      </trkpt>
      <trkpt lat="50.65068" lon="5.80975">
        <ele>318</ele>
        <time>2025-04-21T10:00:20Z</time>
      </trkpt>
      <trkpt lat="50.65073" lon="5.80985">
        <ele>318</ele>
        <time>2025-04-21T10:00:22Z</time>
      </trkpt>
      <trkpt lat="50.6508" lon="5.80987">
        <ele>318</ele>
        <time>2025-04-21T10:00:23Z</time>
      </trkpt>
      <trkpt lat="50.6508" lon="5.81014">
        <ele>318</ele>
        <time>2025-04-21T10:00:27Z</time>
      </trkpt>
      <trkpt lat="50.65188" lon="5.81394">
        <ele>318</ele>
        <time>2025-04-21T10:01:29Z</time>
      </trkpt>
      <trkpt lat="50.6521" lon="5.81516">
        <ele>317</ele>
        <time>2025-04-21T10:01:48Z</time>
      </trkpt>
      <trkpt lat="50.65214" lon="5.81625">
        <ele>317</ele>
        <time>2025-04-21T10:02:04Z</time>
      </trkpt>
      <trkpt lat="50.65213" lon="5.81689">
        <ele>317</ele>
        <time>2025-04-21T10:02:13Z</time>
      </trkpt>
      <trkpt lat="50.65203" lon="5.81799">
        <ele>315</ele>
        <time>2025-04-21T10:02:30Z</time>
      </trkpt>
      <trkpt lat="50.65192" lon="5.81855">
        <ele>315</ele>
        <time>2025-04-21T10:02:38Z</time>
      </trkpt>
      <trkpt lat="50.65171" lon="5.81932">
        <ele>316</ele>
        <time>2025-04-21T10:02:51Z</time>
      </trkpt>
      <trkpt lat="50.6515" lon="5.81998">
        <ele>316</ele>
        <time>2025-04-21T10:03:02Z</time>
      </trkpt>
      <trkpt lat="50.65109" lon="5.82099">
        <ele>318</ele>
        <time>2025-04-21T10:03:20Z</time>
      </trkpt>
      <trkpt lat="50.65193" lon="5.82237">
        <ele>307</ele>
        <time>2025-04-21T10:03:48Z</time>
      </trkpt>
      <trkpt lat="50.65243" lon="5.82369">
        <ele>297</ele>
        <time>2025-04-21T10:04:11Z</time>
      </trkpt>
      <trkpt lat="50.6536" lon="5.82565">
        <ele>279</ele>
        <time>2025-04-21T10:04:50Z</time>
      </trkpt>
      <trkpt lat="50.65481" lon="5.82806">
        <ele>264</ele>
        <time>2025-04-21T10:05:36Z</time>
      </trkpt>
      <trkpt lat="50.65519" lon="5.82868">
        <ele>262</ele>
        <time>2025-04-21T10:05:49Z</time>
      </trkpt>
      <trkpt lat="50.6556" lon="5.82904">
        <ele>261</ele>
        <time>2025-04-21T10:06:00Z</time>
      </trkpt>
      <trkpt lat="50.65615" lon="5.83029">
        <ele>275</ele>
        <time>2025-04-21T10:06:22Z</time>
      </trkpt>
      <trkpt lat="50.65653" lon="5.83066">
        <ele>281</ele>
        <time>2025-04-21T10:06:33Z</time>
      </trkpt>
      <trkpt lat="50.65672" lon="5.83126">
        <ele>284</ele>
        <time>2025-04-21T10:06:43Z</time>
      </trkpt>
      <trkpt lat="50.65731" lon="5.83211">
        <ele>283</ele>
        <time>2025-04-21T10:07:01Z</time>
      </trkpt>
      <trkpt lat="50.65763" lon="5.83229">
        <ele>282</ele>
        <time>2025-04-21T10:07:09Z</time>
      </trkpt>
      <trkpt lat="50.65832" lon="5.83301">
        <ele>277</ele>
        <time>2025-04-21T10:07:29Z</time>
      </trkpt>
      <trkpt lat="50.65934" lon="5.83415">
        <ele>268</ele>
        <time>2025-04-21T10:07:58Z</time>
      </trkpt>
      <trkpt lat="50.66104" lon="5.83665">
        <ele>264</ele>
        <time>2025-04-21T10:08:52Z</time>
      </trkpt>
      <trkpt lat="50.66211" lon="5.83916">
        <ele>257</ele>
        <time>2025-04-21T10:09:37Z</time>
      </trkpt>
      <trkpt lat="50.66263" lon="5.84021">
        <ele>256</ele>
        <time>2025-04-21T10:09:56Z</time>
      </trkpt>
      <trkpt lat="50.66297" lon="5.84022">
        <ele>254</ele>
        <time>2025-04-21T10:10:04Z</time>
      </trkpt>
      <trkpt lat="50.66621" lon="5.83899">
        <ele>241</ele>
        <time>2025-04-21T10:11:22Z</time>
      </trkpt>
      <trkpt lat="50.66808" lon="5.84044">
        <ele>233</ele>
        <time>2025-04-21T10:12:11Z</time>
      </trkpt>
      <trkpt lat="50.6682" lon="5.84077">
        <ele>233</ele>
        <time>2025-04-21T10:12:17Z</time>
      </trkpt>
      <trkpt lat="50.66841" lon="5.84072">
        <ele>232</ele>
        <time>2025-04-21T10:12:22Z</time>
      </trkpt>
      <trkpt lat="50.67072" lon="5.84235">
        <ele>224</ele>
        <time>2025-04-21T10:13:21Z</time>
      </trkpt>
      <trkpt lat="50.67166" lon="5.84319">
        <ele>217</ele>
        <time>2025-04-21T10:13:46Z</time>
      </trkpt>
      <trkpt lat="50.6722" lon="5.84373">
        <ele>213</ele>
        <time>2025-04-21T10:14:01Z</time>
      </trkpt>
      <trkpt lat="50.67341" lon="5.84531">
        <ele>202</ele>
        <time>2025-04-21T10:14:37Z</time>
      </trkpt>
      <trkpt lat="50.67384" lon="5.84572">
        <ele>198</ele>
        <time>2025-04-21T10:14:49Z</time>
      </trkpt>
      <trkpt lat="50.67467" lon="5.84593">
        <ele>194</ele>
        <time>2025-04-21T10:15:09Z</time>
      </trkpt>
      <trkpt lat="50.67549" lon="5.84579">
        <ele>191</ele>
        <time>2025-04-21T10:15:28Z</time>
      </trkpt>
      <trkpt lat="50.67626" lon="5.84572">
        <ele>189</ele>
        <time>2025-04-21T10:15:46Z</time>
      </trkpt>
      <trkpt lat="50.67721" lon="5.84594">
        <ele>188</ele>
        <time>2025-04-21T10:16:08Z</time>
      </trkpt>
      <trkpt lat="50.67758" lon="5.84619">
        <ele>189</ele>
        <time>2025-04-21T10:16:18Z</time>
      </trkpt>
      <trkpt lat="50.67787" lon="5.84668">
        <ele>191</ele>
        <time>2025-04-21T10:16:28Z</time>
      </trkpt>
      <trkpt lat="50.67902" lon="5.84894">
        <ele>197</ele>
        <time>2025-04-21T10:17:11Z</time>
      </trkpt>
      <trkpt lat="50.67989" lon="5.85019">
        <ele>204</ele>
        <time>2025-04-21T10:17:38Z</time>
      </trkpt>
      <trkpt lat="50.67996" lon="5.85036">
        <ele>205</ele>
        <time>2025-04-21T10:17:41Z</time>
      </trkpt>
      <trkpt lat="50.68057" lon="5.85104">
        <ele>210</ele>
        <time>2025-04-21T10:17:59Z</time>
      </trkpt>
      <trkpt lat="50.68095" lon="5.85151">
        <ele>212</ele>
        <time>2025-04-21T10:18:10Z</time>
      </trkpt>
      <trkpt lat="50.68066" lon="5.85247">
        <ele>215</ele>
        <time>2025-04-21T10:18:26Z</time>
      </trkpt>
      <trkpt lat="50.68057" lon="5.85284">
        <ele>216</ele>
        <time>2025-04-21T10:18:32Z</time>
      </trkpt>
      <trkpt lat="50.68064" lon="5.85286">
        <ele>216</ele>
        <time>2025-04-21T10:18:33Z</time>
      </trkpt>
      <trkpt lat="50.68071" lon="5.8528">
        <ele>216</ele>
        <time>2025-04-21T10:18:35Z</time>
      </trkpt>
      <trkpt lat="50.68149" lon="5.85266">
        <ele>216</ele>
        <time>2025-04-21T10:18:53Z</time>
      </trkpt>
      <trkpt lat="50.68213" lon="5.8526">
        <ele>215</ele>
        <time>2025-04-21T10:19:08Z</time>
      </trkpt>
      <trkpt lat="50.68248" lon="5.85263">
        <ele>214</ele>
        <time>2025-04-21T10:19:17Z</time>
      </trkpt>
      <trkpt lat="50.68307" lon="5.85276">
        <ele>212</ele>
        <time>2025-04-21T10:19:30Z</time>
      </trkpt>
      <trkpt lat="50.68342" lon="5.85289">
        <ele>210</ele>
        <time>2025-04-21T10:19:39Z</time>
      </trkpt>
      <trkpt lat="50.68786" lon="5.85489">
        <ele>198</ele>
        <time>2025-04-21T10:21:27Z</time>
      </trkpt>
      <trkpt lat="50.68823" lon="5.85501">
        <ele>202</ele>
        <time>2025-04-21T10:21:35Z</time>
      </trkpt>
      <trkpt lat="50.68872" lon="5.85509">
        <ele>205</ele>
        <time>2025-04-21T10:21:47Z</time>
      </trkpt>
      <trkpt lat="50.6908" lon="5.85525">
        <ele>209</ele>
        <time>2025-04-21T10:22:36Z</time>
      </trkpt>
      <trkpt lat="50.69636" lon="5.85607">
        <ele>220</ele>
        <time>2025-04-21T10:24:46Z</time>
      </trkpt>
      <trkpt lat="50.69684" lon="5.85619">
        <ele>222</ele>
        <time>2025-04-21T10:24:57Z</time>
      </trkpt>
      <trkpt lat="50.69724" lon="5.85639">
        <ele>223</ele>
        <time>2025-04-21T10:25:07Z</time>
      </trkpt>
      <trkpt lat="50.6976" lon="5.85663">
        <ele>224</ele>
        <time>2025-04-21T10:25:16Z</time>
      </trkpt>
      <trkpt lat="50.69797" lon="5.85697">
        <ele>226</ele>
        <time>2025-04-21T10:25:26Z</time>
      </trkpt>
      <trkpt lat="50.69831" lon="5.85735">
        <ele>228</ele>
        <time>2025-04-21T10:25:36Z</time>
      </trkpt>
      <trkpt lat="50.69873" lon="5.85807">
        <ele>229</ele>
        <time>2025-04-21T10:25:51Z</time>
      </trkpt>
      <trkpt lat="50.69944" lon="5.85954">
        <ele>233</ele>
        <time>2025-04-21T10:26:18Z</time>
      </trkpt>
      <trkpt lat="50.69986" lon="5.86035">
        <ele>236</ele>
        <time>2025-04-21T10:26:33Z</time>
      </trkpt>
      <trkpt lat="50.70039" lon="5.86109">
        <ele>240</ele>
        <time>2025-04-21T10:26:50Z</time>
      </trkpt>
      <trkpt lat="50.70091" lon="5.86165">
        <ele>241</ele>
        <time>2025-04-21T10:27:05Z</time>
      </trkpt>
      <trkpt lat="50.70121" lon="5.8619">
        <ele>241</ele>
        <time>2025-04-21T10:27:12Z</time>
      </trkpt>
      <trkpt lat="50.70173" lon="5.86224">
        <ele>242</ele>
        <time>2025-04-21T10:27:26Z</time>
      </trkpt>
      <trkpt lat="50.70262" lon="5.86265">
        <ele>240</ele>
        <time>2025-04-21T10:27:47Z</time>
      </trkpt>
      <trkpt lat="50.70275" lon="5.86266">
        <ele>239</ele>
        <time>2025-04-21T10:27:50Z</time>
      </trkpt>
      <trkpt lat="50.70289" lon="5.86278">
        <ele>239</ele>
        <time>2025-04-21T10:27:54Z</time>
      </trkpt>
      <trkpt lat="50.70616" lon="5.864">
        <ele>241</ele>
        <time>2025-04-21T10:29:12Z</time>
      </trkpt>
      <trkpt lat="50.7068" lon="5.8643">
        <ele>244</ele>
        <time>2025-04-21T10:29:28Z</time>
      </trkpt>
      <trkpt lat="50.70717" lon="5.86458">
        <ele>245</ele>
        <time>2025-04-21T10:29:38Z</time>
      </trkpt>
      <trkpt lat="50.70746" lon="5.86496">
        <ele>247</ele>
        <time>2025-04-21T10:29:46Z</time>
      </trkpt>
      <trkpt lat="50.70782" lon="5.86549">
        <ele>245</ele>
        <time>2025-04-21T10:29:58Z</time>
      </trkpt>
      <trkpt lat="50.70811" lon="5.86608">
        <ele>242</ele>
        <time>2025-04-21T10:30:09Z</time>
      </trkpt>
      <trkpt lat="50.70841" lon="5.86703">
        <ele>240</ele>
        <time>2025-04-21T10:30:25Z</time>
      </trkpt>
      <trkpt lat="50.70848" lon="5.86789">
        <ele>240</ele>
        <time>2025-04-21T10:30:38Z</time>
      </trkpt>
      <trkpt lat="50.70849" lon="5.8684">
        <ele>240</ele>
        <time>2025-04-21T10:30:45Z</time>
      </trkpt>
      <trkpt lat="50.70842" lon="5.86927">
        <ele>242</ele>
        <time>2025-04-21T10:30:58Z</time>
      </trkpt>
      <trkpt lat="50.70794" lon="5.87274">
        <ele>250</ele>
        <time>2025-04-21T10:31:51Z</time>
      </trkpt>
      <trkpt lat="50.70786" lon="5.87392">
        <ele>254</ele>
        <time>2025-04-21T10:32:08Z</time>
      </trkpt>
      <trkpt lat="50.70786" lon="5.87572">
        <ele>257</ele>
        <time>2025-04-21T10:32:35Z</time>
      </trkpt>
      <trkpt lat="50.70791" lon="5.87649">
        <ele>258</ele>
        <time>2025-04-21T10:32:46Z</time>
      </trkpt>
      <trkpt lat="50.70807" lon="5.87793">
        <ele>261</ele>
        <time>2025-04-21T10:33:08Z</time>
      </trkpt>
      <trkpt lat="50.70829" lon="5.87918">
        <ele>263</ele>
        <time>2025-04-21T10:33:27Z</time>
      </trkpt>
      <trkpt lat="50.70865" lon="5.88045">
        <ele>266</ele>
        <time>2025-04-21T10:33:48Z</time>
      </trkpt>
      <trkpt lat="50.70914" lon="5.88166">
        <ele>272</ele>
        <time>2025-04-21T10:34:09Z</time>
      </trkpt>
      <trkpt lat="50.70942" lon="5.88219">
        <ele>274</ele>
        <time>2025-04-21T10:34:19Z</time>
      </trkpt>
      <trkpt lat="50.70982" lon="5.88278">
        <ele>278</ele>
        <time>2025-04-21T10:34:32Z</time>
      </trkpt>
      <trkpt lat="50.71081" lon="5.8839">
        <ele>276</ele>
        <time>2025-04-21T10:35:00Z</time>
      </trkpt>
      <trkpt lat="50.71137" lon="5.88443">
        <ele>272</ele>
        <time>2025-04-21T10:35:15Z</time>
      </trkpt>
      <trkpt lat="50.71373" lon="5.88687">
        <ele>263</ele>
        <time>2025-04-21T10:36:21Z</time>
      </trkpt>
      <trkpt lat="50.71494" lon="5.88843">
        <ele>262</ele>
        <time>2025-04-21T10:36:58Z</time>
      </trkpt>
      <trkpt lat="50.71587" lon="5.89002">
        <ele>256</ele>
        <time>2025-04-21T10:37:30Z</time>
      </trkpt>
      <trkpt lat="50.71732" lon="5.89269">
        <ele>255</ele>
        <time>2025-04-21T10:38:22Z</time>
      </trkpt>
      <trkpt lat="50.71769" lon="5.89333">
        <ele>249</ele>
        <time>2025-04-21T10:38:35Z</time>
      </trkpt>
      <trkpt lat="50.71816" lon="5.89394">
        <ele>244</ele>
        <time>2025-04-21T10:38:49Z</time>
      </trkpt>
      <trkpt lat="50.71877" lon="5.89454">
        <ele>243</ele>
        <time>2025-04-21T10:39:06Z</time>
      </trkpt>
      <trkpt lat="50.72006" lon="5.89538">
        <ele>240</ele>
        <time>2025-04-21T10:39:38Z</time>
      </trkpt>
      <trkpt lat="50.72102" lon="5.89588">
        <ele>237</ele>
        <time>2025-04-21T10:40:02Z</time>
      </trkpt>
      <trkpt lat="50.72133" lon="5.89618">
        <ele>236</ele>
        <time>2025-04-21T10:40:10Z</time>
      </trkpt>
      <trkpt lat="50.72165" lon="5.8966">
        <ele>236</ele>
        <time>2025-04-21T10:40:20Z</time>
      </trkpt>
      <trkpt lat="50.72206" lon="5.89731">
        <ele>235</ele>
        <time>2025-04-21T10:40:34Z</time>
      </trkpt>
      <trkpt lat="50.72228" lon="5.89794">
        <ele>236</ele>
        <time>2025-04-21T10:40:45Z</time>
      </trkpt>
      <trkpt lat="50.72247" lon="5.89899">
        <ele>238</ele>
        <time>2025-04-21T10:41:01Z</time>
      </trkpt>
      <trkpt lat="50.72251" lon="5.89964">
        <ele>237</ele>
        <time>2025-04-21T10:41:11Z</time>
      </trkpt>
      <trkpt lat="50.7225" lon="5.90009">
        <ele>237</ele>
        <time>2025-04-21T10:41:17Z</time>
      </trkpt>
      <trkpt lat="50.72241" lon="5.90082">
        <ele>233</ele>
        <time>2025-04-21T10:41:28Z</time>
      </trkpt>
      <trkpt lat="50.72216" lon="5.90181">
        <ele>229</ele>
        <time>2025-04-21T10:41:44Z</time>
      </trkpt>
      <trkpt lat="50.72196" lon="5.9023">
        <ele>228</ele>
        <time>2025-04-21T10:41:53Z</time>
      </trkpt>
      <trkpt lat="50.72048" lon="5.90479">
        <ele>219</ele>
        <time>2025-04-21T10:42:43Z</time>
      </trkpt>
      <trkpt lat="50.71907" lon="5.90724">
        <ele>224</ele>
        <time>2025-04-21T10:43:32Z</time>
      </trkpt>
      <trkpt lat="50.7189" lon="5.90768">
        <ele>222</ele>
        <time>2025-04-21T10:43:40Z</time>
      </trkpt>
      <trkpt lat="50.71872" lon="5.90825">
        <ele>221</ele>
        <time>2025-04-21T10:43:49Z</time>
      </trkpt>
      <trkpt lat="50.71863" lon="5.9087">
        <ele>219</ele>
        <time>2025-04-21T10:43:56Z</time>
      </trkpt>
      <trkpt lat="50.71854" lon="5.90953">
        <ele>217</ele>
        <time>2025-04-21T10:44:09Z</time>
      </trkpt>
      <trkpt lat="50.71857" lon="5.91062">
        <ele>216</ele>
        <time>2025-04-21T10:44:25Z</time>
      </trkpt>
      <trkpt lat="50.71865" lon="5.9111">
        <ele>214</ele>
        <time>2025-04-21T10:44:32Z</time>
      </trkpt>
      <trkpt lat="50.71882" lon="5.9117">
        <ele>212</ele>
        <time>2025-04-21T10:44:42Z</time>
      </trkpt>
      <trkpt lat="50.71918" lon="5.91259">
        <ele>210</ele>
        <time>2025-04-21T10:44:57Z</time>
      </trkpt>
      <trkpt lat="50.71949" lon="5.91308">
        <ele>210</ele>
        <time>2025-04-21T10:45:08Z</time>
      </trkpt>
      <trkpt lat="50.72" lon="5.91362">
        <ele>211</ele>
        <time>2025-04-21T10:45:22Z</time>
      </trkpt>
      <trkpt lat="50.72032" lon="5.91384">
        <ele>211</ele>
        <time>2025-04-21T10:45:30Z</time>
      </trkpt>
      <trkpt lat="50.7211" lon="5.91407">
        <ele>211</ele>
        <time>2025-04-21T10:45:49Z</time>
      </trkpt>
      <trkpt lat="50.72156" lon="5.91404">
        <ele>211</ele>
        <time>2025-04-21T10:45:59Z</time>
      </trkpt>
      <trkpt lat="50.72197" lon="5.91389">
        <ele>213</ele>
        <time>2025-04-21T10:46:09Z</time>
      </trkpt>
      <trkpt lat="50.72197" lon="5.91362">
        <ele>211</ele>
        <time>2025-04-21T10:46:13Z</time>
      </trkpt>
      <trkpt lat="50.72563" lon="5.91108">
        <ele>213</ele>
        <time>2025-04-21T10:47:47Z</time>
      </trkpt>
      <trkpt lat="50.72608" lon="5.91083">
        <ele>212</ele>
        <time>2025-04-21T10:47:58Z</time>
      </trkpt>
      <trkpt lat="50.7266" lon="5.91062">
        <ele>213</ele>
        <time>2025-04-21T10:48:10Z</time>
      </trkpt>
      <trkpt lat="50.72729" lon="5.91059">
        <ele>212</ele>
        <time>2025-04-21T10:48:26Z</time>
      </trkpt>
      <trkpt lat="50.72756" lon="5.91063">
        <ele>212</ele>
        <time>2025-04-21T10:48:33Z</time>
      </trkpt>
      <trkpt lat="50.72783" lon="5.91075">
        <ele>213</ele>
        <time>2025-04-21T10:48:39Z</time>
      </trkpt>
      <trkpt lat="50.72849" lon="5.91119">
        <ele>217</ele>
        <time>2025-04-21T10:48:56Z</time>
      </trkpt>
      <trkpt lat="50.72881" lon="5.91149">
        <ele>223</ele>
        <time>2025-04-21T10:49:05Z</time>
      </trkpt>
      <trkpt lat="50.72923" lon="5.91207">
        <ele>229</ele>
        <time>2025-04-21T10:49:18Z</time>
      </trkpt>
      <trkpt lat="50.72966" lon="5.91303">
        <ele>231</ele>
        <time>2025-04-21T10:49:35Z</time>
      </trkpt>
      <trkpt lat="50.72983" lon="5.91384">
        <ele>229</ele>
        <time>2025-04-21T10:49:48Z</time>
      </trkpt>
      <trkpt lat="50.72994" lon="5.91468">
        <ele>224</ele>
        <time>2025-04-21T10:50:00Z</time>
      </trkpt>
      <trkpt lat="50.72991" lon="5.91583">
        <ele>222</ele>
        <time>2025-04-21T10:50:17Z</time>
      </trkpt>
      <trkpt lat="50.72983" lon="5.91633">
        <ele>220</ele>
        <time>2025-04-21T10:50:25Z</time>
      </trkpt>
      <trkpt lat="50.72967" lon="5.91687">
        <ele>218</ele>
        <time>2025-04-21T10:50:34Z</time>
      </trkpt>
      <trkpt lat="50.7296" lon="5.91719">
        <ele>217</ele>
        <time>2025-04-21T10:50:39Z</time>
      </trkpt>
      <trkpt lat="50.73011" lon="5.91756">
        <ele>213</ele>
        <time>2025-04-21T10:50:52Z</time>
      </trkpt>
      <trkpt lat="50.73029" lon="5.91755">
        <ele>213</ele>
        <time>2025-04-21T10:50:56Z</time>
      </trkpt>
      <trkpt lat="50.73034" lon="5.91783">
        <ele>211</ele>
        <time>2025-04-21T10:51:01Z</time>
      </trkpt>
      <trkpt lat="50.73022" lon="5.91967">
        <ele>204</ele>
        <time>2025-04-21T10:51:28Z</time>
      </trkpt>
      <trkpt lat="50.73027" lon="5.92">
        <ele>203</ele>
        <time>2025-04-21T10:51:33Z</time>
      </trkpt>
      <trkpt lat="50.73042" lon="5.91998">
        <ele>203</ele>
        <time>2025-04-21T10:51:36Z</time>
      </trkpt>
      <trkpt lat="50.73065" lon="5.92003">
        <ele>202</ele>
        <time>2025-04-21T10:51:42Z</time>
      </trkpt>
      <trkpt lat="50.73118" lon="5.92042">
        <ele>201</ele>
        <time>2025-04-21T10:51:55Z</time>
      </trkpt>
      <trkpt lat="50.7314" lon="5.92071">
        <ele>199</ele>
        <time>2025-04-21T10:52:02Z</time>
      </trkpt>
      <trkpt lat="50.73182" lon="5.92192">
        <ele>193</ele>
        <time>2025-04-21T10:52:23Z</time>
      </trkpt>
      <trkpt lat="50.73203" lon="5.92232">
        <ele>192</ele>
        <time>2025-04-21T10:52:30Z</time>
      </trkpt>
      <trkpt lat="50.73284" lon="5.92343">
        <ele>192</ele>
        <time>2025-04-21T10:52:55Z</time>
      </trkpt>
      <trkpt lat="50.73299" lon="5.92356">
        <ele>191</ele>
        <time>2025-04-21T10:52:59Z</time>
      </trkpt>
      <trkpt lat="50.73717" lon="5.92522">
        <ele>187</ele>
        <time>2025-04-21T10:54:40Z</time>
      </trkpt>
      <trkpt lat="50.73754" lon="5.92618">
        <ele>184</ele>
        <time>2025-04-21T10:54:57Z</time>
      </trkpt>
      <trkpt lat="50.73849" lon="5.92916">
        <ele>178</ele>
        <time>2025-04-21T10:55:46Z</time>
      </trkpt>
      <trkpt lat="50.73906" lon="5.93081">
        <ele>178</ele>
        <time>2025-04-21T10:56:14Z</time>
      </trkpt>
      <trkpt lat="50.73946" lon="5.93163">
        <ele>174</ele>
        <time>2025-04-21T10:56:29Z</time>
      </trkpt>
      <trkpt lat="50.73991" lon="5.93238">
        <ele>171</ele>
        <time>2025-04-21T10:56:44Z</time>
      </trkpt>
      <trkpt lat="50.74038" lon="5.93309">
        <ele>167</ele>
        <time>2025-04-21T10:56:59Z</time>
      </trkpt>
      <trkpt lat="50.74079" lon="5.93363">
        <ele>164</ele>
        <time>2025-04-21T10:57:12Z</time>
      </trkpt>
      <trkpt lat="50.74104" lon="5.93384">
        <ele>163</ele>
        <time>2025-04-21T10:57:18Z</time>
      </trkpt>
      <trkpt lat="50.74218" lon="5.93461">
        <ele>160</ele>
        <time>2025-04-21T10:57:47Z</time>
      </trkpt>
      <trkpt lat="50.74286" lon="5.93504">
        <ele>160</ele>
        <time>2025-04-21T10:58:05Z</time>
      </trkpt>
      <trkpt lat="50.74397" lon="5.93564">
        <ele>161</ele>
        <time>2025-04-21T10:58:32Z</time>
      </trkpt>
      <trkpt lat="50.74424" lon="5.93593">
        <ele>161</ele>
        <time>2025-04-21T10:58:40Z</time>
      </trkpt>
      <trkpt lat="50.74471" lon="5.93699">
        <ele>159</ele>
        <time>2025-04-21T10:58:59Z</time>
      </trkpt>
      <trkpt lat="50.74536" lon="5.9383">
        <ele>158</ele>
        <time>2025-04-21T10:59:23Z</time>
      </trkpt>
      <trkpt lat="50.7458" lon="5.93781">
        <ele>156</ele>
        <time>2025-04-21T10:59:36Z</time>
      </trkpt>
      <trkpt lat="50.74706" lon="5.93598">
        <ele>149</ele>
        <time>2025-04-21T11:00:16Z</time>
      </trkpt>
      <trkpt lat="50.74727" lon="5.9358">
        <ele>148</ele>
        <time>2025-04-21T11:00:21Z</time>
      </trkpt>
      <trkpt lat="50.74745" lon="5.93574">
        <ele>148</ele>
        <time>2025-04-21T11:00:26Z</time>
      </trkpt>
      <trkpt lat="50.7477" lon="5.93577">
        <ele>147</ele>
        <time>2025-04-21T11:00:32Z</time>
      </trkpt>
      <trkpt lat="50.74906" lon="5.93624">
        <ele>142</ele>
        <time>2025-04-21T11:01:04Z</time>
      </trkpt>
      <trkpt lat="50.74923" lon="5.93624">
        <ele>142</ele>
        <time>2025-04-21T11:01:08Z</time>
      </trkpt>
      <trkpt lat="50.74973" lon="5.93588">
        <ele>141</ele>
        <time>2025-04-21T11:01:21Z</time>
      </trkpt>
      <trkpt lat="50.75044" lon="5.93524">
        <ele>146</ele>
        <time>2025-04-21T11:01:40Z</time>
      </trkpt>
      <trkpt lat="50.75058" lon="5.93504">
        <ele>148</ele>
        <time>2025-04-21T11:01:44Z</time>
      </trkpt>
      <trkpt lat="50.75064" lon="5.93484">
        <ele>149</ele>
        <time>2025-04-21T11:01:48Z</time>
      </trkpt>
      <trkpt lat="50.7507" lon="5.93444">
        <ele>152</ele>
        <time>2025-04-21T11:01:54Z</time>
      </trkpt>
      <trkpt lat="50.75072" lon="5.93396">
        <ele>155</ele>
        <time>2025-04-21T11:02:01Z</time>
      </trkpt>
      <trkpt lat="50.75077" lon="5.93367">
        <ele>156</ele>
        <time>2025-04-21T11:02:05Z</time>
      </trkpt>
      <trkpt lat="50.75091" lon="5.93374">
        <ele>155</ele>
        <time>2025-04-21T11:02:09Z</time>
      </trkpt>
      <trkpt lat="50.75116" lon="5.93371">
        <ele>154</ele>
        <time>2025-04-21T11:02:15Z</time>
      </trkpt>
      <trkpt lat="50.75145" lon="5.93441">
        <ele>148</ele>
        <time>2025-04-21T11:02:27Z</time>
      </trkpt>
      <trkpt lat="50.75167" lon="5.93437">
        <ele>146</ele>
        <time>2025-04-21T11:02:32Z</time>
      </trkpt>
      <trkpt lat="50.75195" lon="5.93437">
        <ele>145</ele>
        <time>2025-04-21T11:02:39Z</time>
      </trkpt>
      <trkpt lat="50.75256" lon="5.93445">
        <ele>142</ele>
        <time>2025-04-21T11:02:53Z</time>
      </trkpt>
      <trkpt lat="50.75315" lon="5.93469">
        <ele>140</ele>
        <time>2025-04-21T11:03:07Z</time>
      </trkpt>
      <trkpt lat="50.75347" lon="5.93467">
        <ele>140</ele>
        <time>2025-04-21T11:03:15Z</time>
      </trkpt>
      <trkpt lat="50.75361" lon="5.93496">
        <ele>137</ele>
        <time>2025-04-21T11:03:20Z</time>
      </trkpt>
      <trkpt lat="50.75393" lon="5.93521">
        <ele>134</ele>
        <time>2025-04-21T11:03:28Z</time>
      </trkpt>
      <trkpt lat="50.7548" lon="5.93634">
        <ele>128</ele>
        <time>2025-04-21T11:03:55Z</time>
      </trkpt>
      <trkpt lat="50.75516" lon="5.9365">
        <ele>127</ele>
        <time>2025-04-21T11:04:03Z</time>
      </trkpt>
      <trkpt lat="50.75552" lon="5.93698">
        <ele>124</ele>
        <time>2025-04-21T11:04:14Z</time>
      </trkpt>
      <trkpt lat="50.7557" lon="5.93709">
        <ele>124</ele>
        <time>2025-04-21T11:04:19Z</time>
      </trkpt>
      <trkpt lat="50.75594" lon="5.93728">
        <ele>123</ele>
        <time>2025-04-21T11:04:25Z</time>
      </trkpt>
      <trkpt lat="50.75628" lon="5.93698">
        <ele>123</ele>
        <time>2025-04-21T11:04:34Z</time>
      </trkpt>
      <trkpt lat="50.75632" lon="5.93706">
        <ele>123</ele>
        <time>2025-04-21T11:04:36Z</time>
      </trkpt>
      <trkpt lat="50.75632" lon="5.93727">
        <ele>123</ele>
        <time>2025-04-21T11:04:39Z</time>
      </trkpt>
      <trkpt lat="50.75641" lon="5.93773">
        <ele>122</ele>
        <time>2025-04-21T11:04:46Z</time>
      </trkpt>
      <trkpt lat="50.75646" lon="5.93786">
        <ele>123</ele>
        <time>2025-04-21T11:04:48Z</time>
      </trkpt>
      <trkpt lat="50.75641" lon="5.93828">
        <ele>123</ele>
        <time>2025-04-21T11:04:55Z</time>
      </trkpt>
    </trkseg>
  </trk>
</gpx>